| time (UTC) | temp F | wind direction | speed MPH | gust MPH | rain 1hr in | rain 24hr in | rain mn in | humidity % | barometer mb |
| 20260510043907 | 61 | 84 | 0.0 | 2.0 | 0.00 | 0.00 | 0.00 | 86 | 1012.4 |
| 20260510043007 | 61 | 55 | 0.0 | 2.0 | 0.00 | 0.00 | 0.00 | 86 | 1012.1 |
| 20260510042108 | 60 | 12 | 0.0 | 2.0 | 0.00 | 0.00 | 0.00 | 87 | 1012.5 |
| 20260510041208 | 60 | 322 | 0.0 | 2.0 | 0.00 | 0.00 | 0.00 | 87 | 1012.5 |
| 20260510035408 | 60 | 106 | 0.0 | 2.0 | 0.00 | 0.00 | 0.00 | 87 | 1012.6 |
| 20260510034508 | 60 | 45 | 0.0 | 2.0 | 0.00 | 0.00 | 0.00 | 86 | 1012.9 |
| 20260510033609 | 60 | 57 | 0.0 | 4.0 | 0.00 | 0.00 | 0.00 | 87 | 1012.5 |
| 20260510032708 | 61 | 111 | 0.0 | 2.0 | 0.00 | 0.00 | 0.00 | 87 | 1012.4 |
| 20260510031808 | 61 | 96 | 1.0 | 2.0 | 0.00 | 0.00 | 0.00 | 86 | 1012.2 |
| 20260510030908 | 62 | 45 | 0.0 | 2.0 | 0.00 | 0.00 | 0.00 | 84 | 1011.4 |
| 20260510030008 | 61 | 45 | 1.0 | 2.0 | 0.00 | 0.00 | 0.00 | 85 | 1011.4 |
| 20260510025108 | 61 | 90 | 0.0 | 2.0 | 0.00 | 0.00 | 0.00 | 84 | 1011.9 |
| 20260510024208 | 61 | 68 | 0.0 | 2.0 | 0.00 | 0.00 | 0.00 | 84 | 1011.9 |
| 20260510022409 | 61 | 68 | 0.0 | 2.0 | 0.00 | 0.00 | 0.00 | 84 | 1012.3 |
| 20260510021509 | 61 | 68 | 0.0 | 2.0 | 0.00 | 0.00 | 0.00 | 84 | 1012.3 |
| 20260510020608 | 61 | 68 | 0.0 | 2.0 | 0.00 | 0.00 | 0.00 | 83 | 1012.3 |
| 20260510015708 | 62 | 68 | 0.0 | 2.0 | 0.00 | 0.00 | 0.00 | 83 | 1012.5 |
| 20260510013910 | 62 | 45 | 0.0 | 2.0 | 0.00 | 0.00 | 0.00 | 82 | 1013.1 |
| 20260510013008 | 61 | 54 | 0.0 | 2.0 | 0.00 | 0.00 | 0.00 | 83 | 1013.0 |
| 20260510012109 | 61 | 42 | 0.0 | 2.0 | 0.00 | 0.00 | 0.00 | 84 | 1013.3 |
| 20260510011208 | 62 | 49 | 0.0 | 2.0 | 0.00 | 0.00 | 0.00 | 83 | 1013.1 |
| 20260510010308 | 62 | 46 | 0.0 | 2.0 | 0.00 | 0.00 | 0.00 | 82 | 1013.1 |
| 20260510004509 | 61 | 45 | 0.0 | 2.0 | 0.00 | 0.00 | 0.00 | 81 | 1013.0 |
| 20260510003608 | 61 | 45 | 1.0 | 2.0 | 0.00 | 0.00 | 0.00 | 82 | 1013.4 |
| 20260510000910 | 60 | 68 | 0.0 | 2.0 | 0.00 | 0.00 | 0.00 | 83 | 1013.4 |
| 20260510000009 | 60 | 0 | 0.0 | 0.0 | 0.00 | 0.00 | 0.00 | 83 | 1013.6 |
| 20260509234208 | 61 | 43 | 0.0 | 2.0 | 0.00 | 0.00 | 0.00 | 82 | 1013.6 |
| 20260509233308 | 61 | 45 | 0.0 | 2.0 | 0.00 | 0.00 | 0.00 | 82 | 1013.6 |
| 20260509231513 | 60 | 0 | 0.0 | 0.0 | 0.00 | 0.00 | 0.00 | 83 | 1013.4 |
| 20260509230609 | 61 | 0 | 0.0 | 0.0 | 0.00 | 0.00 | 0.00 | 82 | 1013.6 |
| 20260509225709 | 61 | 45 | 0.0 | 2.0 | 0.00 | 0.00 | 0.00 | 81 | 1013.5 |
| 20260509224810 | 61 | 45 | 0.0 | 2.0 | 0.00 | 0.00 | 0.00 | 80 | 1013.5 |
| 20260509223909 | 62 | 45 | 1.0 | 2.0 | 0.00 | 0.00 | 0.00 | 80 | 1013.4 |
| 20260509223023 | 62 | 45 | 1.0 | 2.0 | 0.00 | 0.00 | 0.00 | 79 | 1013.5 |
| 20260509222113 | 62 | 46 | 0.0 | 2.0 | 0.00 | 0.00 | 0.00 | 80 | 1013.6 |
| 20260509221209 | 62 | 45 | 0.0 | 2.0 | 0.00 | 0.00 | 0.00 | 80 | 1013.4 |
| 20260509215535 | 62 | 91 | 0.0 | 2.0 | 0.00 | 0.00 | 0.00 | 80 | 1013.3 |
| 20260509214635 | 62 | 103 | 2.0 | 2.0 | 0.00 | 0.00 | 0.00 | 79 | 1012.9 |
| 20260509213735 | 63 | 45 | 0.0 | 2.0 | 0.00 | 0.00 | 0.00 | 79 | 1012.9 |
| 20260509212835 | 62 | 46 | 0.0 | 2.0 | 0.00 | 0.00 | 0.00 | 80 | 1013.2 |
| 20260509211935 | 62 | 68 | 0.0 | 2.0 | 0.00 | 0.00 | 0.00 | 80 | 1013.4 |
| 20260509211035 | 63 | 45 | 0.0 | 2.0 | 0.00 | 0.00 | 0.00 | 79 | 1013.4 |
| 20260509205235 | 63 | 68 | 0.0 | 2.0 | 0.00 | 0.00 | 0.00 | 80 | 1013.5 |
| 20260509204335 | 63 | 56 | 1.0 | 2.0 | 0.00 | 0.00 | 0.00 | 80 | 1013.7 |
| 20260509203435 | 63 | 127 | 0.0 | 2.0 | 0.00 | 0.00 | 0.00 | 80 | 1013.8 |
| 20260509202535 | 64 | 45 | 0.0 | 2.0 | 0.00 | 0.00 | 0.00 | 77 | 1013.7 |
| 20260509201635 | 65 | 45 | 0.0 | 2.0 | 0.00 | 0.00 | 0.00 | 77 | 1013.5 |
| 20260509200735 | 65 | 0 | 0.0 | 0.0 | 0.00 | 0.00 | 0.00 | 77 | 1013.6 |
| 20260509195835 | 65 | 45 | 0.0 | 2.0 | 0.00 | 0.00 | 0.00 | 77 | 1013.5 |
| 20260509194935 | 65 | 45 | 0.0 | 2.0 | 0.00 | 0.00 | 0.00 | 76 | 1013.4 |
| 20260509194035 | 66 | 0 | 0.0 | 0.0 | 0.00 | 0.00 | 0.00 | 77 | 1013.4 |
| 20260509192235 | 66 | 0 | 0.0 | 0.0 | 0.00 | 0.00 | 0.00 | 76 | 1012.8 |
| 20260509191335 | 67 | 46 | 0.0 | 2.0 | 0.00 | 0.00 | 0.00 | 76 | 1013.0 |
| 20260509185535 | 67 | 42 | 0.0 | 2.0 | 0.00 | 0.00 | 0.00 | 74 | 1012.7 |
| 20260509184635 | 68 | 40 | 0.0 | 2.0 | 0.00 | 0.00 | 0.00 | 75 | 1012.6 |
| 20260509182835 | 69 | 45 | 0.0 | 2.0 | 0.00 | 0.00 | 0.00 | 75 | 1012.4 |
| 20260509181935 | 69 | 42 | 0.0 | 2.0 | 0.00 | 0.00 | 0.00 | 73 | 1012.2 |
| 20260509181035 | 69 | 68 | 0.0 | 2.0 | 0.00 | 0.00 | 0.00 | 73 | 1012.2 |
| 20260509180135 | 70 | 68 | 0.0 | 2.0 | 0.00 | 0.00 | 0.00 | 71 | 1012.0 |
| 20260509175235 | 71 | 78 | 1.0 | 2.0 | 0.00 | 0.00 | 0.00 | 67 | 1012.0 |
| 20260509174335 | 72 | 45 | 0.0 | 2.0 | 0.00 | 0.00 | 0.00 | 68 | 1012.3 |
| 20260509173435 | 72 | 72 | 1.0 | 2.0 | 0.00 | 0.00 | 0.00 | 66 | 1012.1 |
| 20260509172536 | 73 | 46 | 0.0 | 2.0 | 0.00 | 0.00 | 0.00 | 65 | 1012.5 |
| 20260509171635 | 73 | 59 | 0.0 | 2.0 | 0.00 | 0.00 | 0.00 | 64 | 1012.3 |
| 20260509170736 | 73 | 50 | 1.0 | 4.0 | 0.00 | 0.00 | 0.00 | 64 | 1012.1 |
| 20260509165835 | 73 | 49 | 0.0 | 2.0 | 0.00 | 0.00 | 0.00 | 63 | 1012.1 |
| 20260509164935 | 74 | 80 | 1.0 | 2.0 | 0.00 | 0.00 | 0.00 | 62 | 1012.1 |
| 20260509164035 | 74 | 71 | 1.0 | 2.0 | 0.00 | 0.00 | 0.00 | 62 | 1012.2 |
| 20260509163135 | 74 | 69 | 0.0 | 2.0 | 0.00 | 0.00 | 0.00 | 61 | 1012.0 |
| 20260509162235 | 74 | 58 | 1.0 | 2.0 | 0.00 | 0.00 | 0.00 | 60 | 1012.3 |
| 20260509161335 | 74 | 60 | 0.0 | 2.0 | 0.00 | 0.00 | 0.00 | 60 | 1012.4 |
| 20260509155535 | 75 | 79 | 0.0 | 4.0 | 0.00 | 0.00 | 0.00 | 59 | 1012.7 |
| 20260509154635 | 75 | 87 | 0.0 | 4.0 | 0.00 | 0.00 | 0.00 | 59 | 1012.9 |
| 20260509153735 | 75 | 55 | 3.0 | 4.0 | 0.00 | 0.00 | 0.00 | 59 | 1012.9 |
| 20260509152835 | 76 | 64 | 0.0 | 4.0 | 0.00 | 0.00 | 0.00 | 58 | 1012.8 |
| 20260509151935 | 76 | 66 | 2.0 | 4.0 | 0.00 | 0.00 | 0.00 | 56 | 1013.2 |
| 20260509151035 | 76 | 83 | 2.0 | 4.0 | 0.00 | 0.00 | 0.00 | 56 | 1013.0 |
| 20260509150135 | 76 | 118 | 2.0 | 4.0 | 0.00 | 0.00 | 0.00 | 56 | 1013.2 |
| 20260509144335 | 77 | 87 | 2.0 | 4.0 | 0.00 | 0.00 | 0.00 | 54 | 1013.3 |